Lufkin, TX

6:51 PM CDT on October 21, 2017 (GMT -0500)
Angelina County

Weather History for KLFK - June, 2014

Change the Weather History Date:

Thursday, June 19, 2014

  Actual Average Record
Temperature  
Mean Temperature 84 °F 81 °F  
Max Temperature 93 °F 91 °F 105 °F (1934)
Min Temperature 75 °F 70 °F 60 °F (1917)
Degree Days  
Heating Degree Days 0 0  
Month to date heating degree days 0 0  
Since 1 June heating degree days 0 0  
Since 1 July heating degree days 2125 1917  
Cooling Degree Days 19 16  
Month to date cooling degree days 335 273  
Year to date cooling degree days 831 742  
Since 1 June cooling degree days 335 273  
Growing Degree Days 33 (Base 50)    
Moisture  
Dew Point 72 °F    
Average Humidity 72    
Maximum Humidity 94    
Minimum Humidity 49    
Precipitation  
Precipitation T in 0.17 in 1.62 in (1919)
Month to date precipitation 3.03 3.02  
Year to date precipitation 19.21 22.54  
Snow  
Snow 0.00 in - - ()
Month to date snowfall 0.0  
Since 1 June snowfall 0.0  
Since 1 July snowfall 3.2  
Snow Depth 0.00 in    
Sea Level Pressure  
Sea Level Pressure 30.05 in    
Wind  
Wind Speed 5 mph (SE)    
Max Wind Speed 12 mph    
Max Gust Speed 16 mph    
Visibility 9 miles    
Events      
T = Trace of Precipitation, MM = Missing Value Source: NWS Daily Summary

Daily Weather History Graph

Daily Weather History Graph

Search for Another Location

Airport or City:

Trip Planner

Search our weather history database for the weather conditions in past years. The results will help you decide how hot, cold, wet, or windy it might be!

Date:

Astronomy

Jun. 19, 2014 Rise Set
Actual Time 6:15 AM CDT 8:25 PM CDT
Civil Twilight 5:47 AM CDT 8:53 PM CDT
Nautical Twilight 5:12 AM CDT 9:27 PM CDT
Astronomical Twilight 4:36 AM CDT 10:04 PM CDT
Moon 12:54 AM CDT (6/19) 1:19 PM CDT (6/19)
Length of Visible Light 15h 06m
Length of Day
14h 10m
Waning Gibbous, 51% of the Moon is Illuminated
Jun 19
Waning Gibbous
Jun 19
Last Quarter
Jun 27
New
Jul 5
First Quarter
Jul 12
Full

Hourly Weather History & Observations

Time (CDT) Temp. Heat Index Dew Point Humidity Pressure Visibility Wind Dir Wind Speed Gust Speed Precip Events Conditions
12:53 AM 75.0 °F - 72.0 °F 90% 30.03 in 8.0 mi ESE 3.5 mph - N/A   Clear
1:53 AM 75.2 °F - 71.6 °F 89% 30.03 in 9.0 mi SSE 5.8 mph - N/A   Clear
2:53 AM 75.9 °F - 73.0 °F 91% 30.01 in 8.0 mi SSE 4.6 mph - N/A   Clear
3:53 AM 75.9 °F - 73.0 °F 91% 30.01 in 7.0 mi SE 5.8 mph - N/A   Clear
4:53 AM 75.2 °F - 73.4 °F 94% 30.02 in 8.0 mi SSE 4.6 mph - N/A   Clear
5:53 AM 75.9 °F - 73.0 °F 91% 30.02 in 8.0 mi SE 4.6 mph - N/A   Clear
6:33 AM 75.9 °F - 73.0 °F 91% 30.04 in 6.0 mi SE 4.6 mph - N/A   Mostly Cloudy
6:53 AM 75.9 °F - 73.0 °F 91% 30.04 in 6.0 mi SE 4.6 mph - N/A   Scattered Clouds
7:53 AM 78.1 °F - 73.9 °F 87% 30.06 in 9.0 mi SSE 5.8 mph - N/A   Clear
8:53 AM 81.0 °F 86.2 °F 73.9 °F 79% 30.08 in 10.0 mi South 4.6 mph - N/A   Clear
9:29 AM 82.9 °F 89.4 °F 73.9 °F 74% 30.09 in 10.0 mi Variable 6.9 mph - N/A   Mostly Cloudy
9:53 AM 82.9 °F 89.4 °F 73.9 °F 74% 30.09 in 10.0 mi SSE 6.9 mph - N/A   Mostly Cloudy
10:53 AM 87.1 °F 92.8 °F 71.1 °F 59% 30.09 in 10.0 mi South 6.9 mph - N/A   Unknown
11:53 AM 89.1 °F 95.0 °F 71.1 °F 55% 30.10 in 10.0 mi Variable 4.6 mph - N/A   Mostly Cloudy
12:53 PM 90.0 °F 94.5 °F 69.1 °F 50% 30.10 in 10.0 mi South 6.9 mph - N/A   Partly Cloudy
1:53 PM 91.0 °F 95.6 °F 69.1 °F 48% 30.09 in 10.0 mi Variable 3.5 mph - N/A   Scattered Clouds
2:53 PM 91.0 °F 96.6 °F 70.0 °F 50% 30.07 in 10.0 mi Variable 5.8 mph - N/A   Clear
3:53 PM 91.9 °F 97.4 °F 70.0 °F 48% 30.05 in 10.0 mi Calm Calm - N/A   Clear
4:53 PM 91.0 °F 95.6 °F 69.1 °F 48% 30.04 in 10.0 mi SSE 5.8 mph - N/A   Clear
5:53 PM 91.9 °F 96.9 °F 69.1 °F 47% 30.02 in 10.0 mi ESE 3.5 mph - N/A   Clear
6:53 PM 90.0 °F 95.4 °F 70.0 °F 52% 30.01 in 10.0 mi East 4.6 mph - N/A   Clear
7:53 PM 87.1 °F 94.5 °F 73.0 °F 63% 30.01 in 10.0 mi East 4.6 mph - N/A   Clear
8:53 PM 82.0 °F 88.6 °F 75.0 °F 79% 30.01 in 10.0 mi East 3.5 mph - N/A   Scattered Clouds
9:53 PM 81.0 °F 85.8 °F 73.0 °F 77% 30.02 in 10.0 mi ESE 5.8 mph - N/A   Scattered Clouds
10:53 PM 80.1 °F 84.2 °F 73.0 °F 79% 30.04 in 10.0 mi SE 3.5 mph - 0.00 in   Scattered Clouds
11:53 PM 80.1 °F 83.8 °F 72.0 °F 76% 30.04 in 10.0 mi SSE 5.8 mph - N/A   Clear